Hourly Weather Rudnya

Today, 18 April, Sunday

Time Temperature Precipitation Wind Pressure Humidity
00:00 +9°C° 0 mm 3 mps 753 mmHg 87%
01:00 +8°C° 0 mm 3 mps 753 mmHg 89%
02:00 +8°C° 0 mm 3 mps 753 mmHg 91%
03:00 +7°C° 0 mm 3 mps 753 mmHg 92%
04:00 +7°C° 0 mm 3 mps 753 mmHg 92%
05:00 +5°C° 0 mm 3 mps 753 mmHg 93%
06:00 +7°C° 0 mm 3 mps 753 mmHg 84%
07:00 +7°C° 0 mm 4 mps 753 mmHg 76%
08:00 +8°C° 0 mm 4 mps 753 mmHg 67%
09:00 +11°C° 0 mm 4 mps 754 mmHg 60%
10:00 +12°C° 0 mm 5 mps 754 mmHg 52%
11:00 +13°C° 0 mm 5 mps 754 mmHg 45%
12:00 +14°C° 0 mm 5 mps 754 mmHg 42%
13:00 +15°C° 0 mm 5 mps 754 mmHg 39%
14:00 +15°C° 0 mm 5 mps 754 mmHg 36%
15:00 +15°C° 0 mm 4 mps 754 mmHg 39%
16:00 +15°C° 0 mm 4 mps 754 mmHg 42%
17:00 +14°C° 0 mm 3 mps 754 mmHg 44%
18:00 +13°C° 0 mm 3 mps 754 mmHg 52%
19:00 +11°C° 0 mm 3 mps 754 mmHg 59%
20:00 +9°C° 0 mm 2 mps 754 mmHg 66%
21:00 +8°C° 0 mm 2 mps 754 mmHg 69%
22:00 +8°C° 0 mm 2 mps 755 mmHg 72%
23:00 +7°C° 0 mm 2 mps 755 mmHg 75%

Tomorrow, 19 April, Monday

Time Temperature Precipitation Wind Pressure Humidity
00:00 +7°C° 0 mm 2 mps 755 mmHg 76%
01:00 +6°C° 0 mm 2 mps 755 mmHg 78%
02:00 +5°C° 0 mm 3 mps 755 mmHg 79%
03:00 +5°C° 0 mm 2 mps 755 mmHg 82%
04:00 +5°C° 0 mm 2 mps 755 mmHg 86%
05:00 +4°C° 0 mm 2 mps 755 mmHg 89%
06:00 +6°C° 0 mm 2 mps 755 mmHg 83%
07:00 +7°C° 0 mm 3 mps 756 mmHg 77%
08:00 +9°C° 0 mm 3 mps 756 mmHg 70%
09:00 +10°C° 0 mm 3 mps 756 mmHg 65%
10:00 +11°C° 0 mm 3 mps 755 mmHg 60%
11:00 +12°C° 0 mm 4 mps 755 mmHg 55%
12:00 +12°C° 0.1 mm 4 mps 755 mmHg 56%
13:00 +12°C° 0.1 mm 4 mps 755 mmHg 56%
14:00 +12°C° 0.1 mm 4 mps 755 mmHg 56%
15:00 +11°C° 0 mm 4 mps 755 mmHg 59%
16:00 +11°C° 0 mm 4 mps 755 mmHg 62%
17:00 +10°C° 0 mm 4 mps 755 mmHg 65%
18:00 +8°C° 0 mm 4 mps 755 mmHg 69%
19:00 +7°C° 0 mm 4 mps 755 mmHg 74%
20:00 +6°C° 0 mm 4 mps 755 mmHg 78%
21:00 +7°C° 0 mm 3 mps 755 mmHg 79%
22:00 +7°C° 0 mm 3 mps 755 mmHg 79%
23:00 +7°C° 0 mm 2 mps 755 mmHg 80%

Day after tomorrow, 20 April, Tuesday

Time Temperature Precipitation Wind Pressure Humidity
00:00 +7°C° 0 mm 2 mps 754 mmHg 80%
01:00 +7°C° 0 mm 2 mps 754 mmHg 81%
02:00 +6°C° 0 mm 2 mps 754 mmHg 82%
03:00 +6°C° 0 mm 2 mps 753 mmHg 82%
04:00 +6°C° 0 mm 2 mps 753 mmHg 82%
05:00 +5°C° 0 mm 2 mps 753 mmHg 82%
06:00 +5°C° 0 mm 3 mps 753 mmHg 80%
07:00 +5°C° 0 mm 3 mps 752 mmHg 79%
08:00 +5°C° 0 mm 3 mps 752 mmHg 78%
09:00 +7°C° 0.1 mm 3 mps 752 mmHg 71%
10:00 +7°C° 0.1 mm 3 mps 751 mmHg 64%
11:00 +8°C° 0.1 mm 3 mps 751 mmHg 56%
12:00 +8°C° 0 mm 3 mps 751 mmHg 56%
13:00 +8°C° 0 mm 3 mps 750 mmHg 56%
14:00 +8°C° 0 mm 3 mps 750 mmHg 55%
15:00 +8°C° 0 mm 3 mps 750 mmHg 57%
16:00 +8°C° 0 mm 3 mps 749 mmHg 59%
17:00 +8°C° 0 mm 3 mps 749 mmHg 61%
18:00 +7°C° 0 mm 3 mps 748 mmHg 65%
19:00 +5°C° 0 mm 3 mps 748 mmHg 69%
20:00 +5°C° 0 mm 3 mps 748 mmHg 73%
21:00 +5°C° 0 mm 2 mps 747 mmHg 77%
22:00 +4°C° 0 mm 2 mps 747 mmHg 80%
23:00 +4°C° 0 mm 2 mps 746 mmHg 84%

21 April, Wednesday

Time Temperature Precipitation Wind Pressure Humidity
00:00 +4°C° 0 mm 2 mps 746 mmHg 85%
01:00 +4°C° 0 mm 2 mps 745 mmHg 87%
02:00 +3°C° 0 mm 3 mps 745 mmHg 88%
03:00 +3°C° 0 mm 3 mps 744 mmHg 88%
04:00 +3°C° 0 mm 3 mps 744 mmHg 88%
05:00 +3°C° 0 mm 3 mps 743 mmHg 89%
06:00 +3°C° 0 mm 3 mps 743 mmHg 85%
07:00 +3°C° 0 mm 4 mps 743 mmHg 82%
08:00 +4°C° 0 mm 4 mps 743 mmHg 79%
09:00 +5°C° 0 mm 4 mps 742 mmHg 74%
10:00 +5°C° 0 mm 4 mps 742 mmHg 68%
11:00 +6°C° 0 mm 5 mps 742 mmHg 62%
12:00 +6°C° 0 mm 4 mps 742 mmHg 62%
13:00 +6°C° 0 mm 4 mps 743 mmHg 63%
14:00 +7°C° 0 mm 4 mps 743 mmHg 63%
15:00 +7°C° 0 mm 4 mps 743 mmHg 62%
16:00 +8°C° 0 mm 3 mps 743 mmHg 62%
17:00 +8°C° 0 mm 3 mps 743 mmHg 61%
18:00 +7°C° 0 mm 3 mps 744 mmHg 65%
19:00 +7°C° 0 mm 2 mps 744 mmHg 70%
20:00 +6°C° 0 mm 2 mps 744 mmHg 74%
21:00 +5°C° 0 mm 2 mps 744 mmHg 76%
22:00 +4°C° 0 mm 2 mps 745 mmHg 79%
23:00 +4°C° 0 mm 2 mps 745 mmHg 81%

22 April, Thursday

Time Temperature Precipitation Wind Pressure Humidity
00:00 +3°C° 0 mm 2 mps 745 mmHg 83%
01:00 +3°C° 0 mm 2 mps 746 mmHg 84%
02:00 +3°C° 0 mm 2 mps 746 mmHg 85%
03:00 +3°C° 0 mm 2 mps 746 mmHg 87%
04:00 +3°C° 0 mm 2 mps 746 mmHg 89%
05:00 +2°C° 0 mm 2 mps 747 mmHg 92%
06:00 +4°C° 0 mm 2 mps 747 mmHg 84%
07:00 +6°C° 0 mm 2 mps 747 mmHg 76%
08:00 +8°C° 0 mm 2 mps 748 mmHg 68%
09:00 +10°C° 0 mm 2 mps 748 mmHg 61%
10:00 +12°C° 0 mm 2 mps 748 mmHg 54%
11:00 +13°C° 0 mm 3 mps 748 mmHg 48%
12:00 +13°C° 0.1 mm 3 mps 748 mmHg 47%
13:00 +14°C° 0.1 mm 3 mps 748 mmHg 46%
14:00 +16°C° 0.1 mm 3 mps 748 mmHg 45%
15:00 +14°C° 0.1 mm 4 mps 748 mmHg 50%
16:00 +13°C° 0.1 mm 4 mps 748 mmHg 56%
17:00 +13°C° 0.1 mm 4 mps 748 mmHg 61%
18:00 +11°C° 0.6 mm 3 mps 749 mmHg 71%
19:00 +10°C° 0.6 mm 3 mps 749 mmHg 80%
20:00 +8°C° 0.6 mm 2 mps 750 mmHg 90%
21:00 +8°C° 0 mm 2 mps 750 mmHg 90%
22:00 +8°C° 0 mm 1 mps 750 mmHg 90%
23:00 +8°C° 0 mm 1 mps 750 mmHg 90%

23 April, Friday

Time Temperature Precipitation Wind Pressure Humidity
00:00 +8°C° 0 mm 1 mps 750 mmHg 91%
01:00 +7°C° 0 mm 1 mps 750 mmHg 91%
02:00 +7°C° 0 mm 1 mps 750 mmHg 91%
03:00 +7°C° 0 mm 1 mps 750 mmHg 91%
04:00 +6°C° 0 mm 2 mps 749 mmHg 90%
05:00 +6°C° 0 mm 2 mps 749 mmHg 90%
06:00 +5°C° 1.1 mm 3 mps 749 mmHg 91%
07:00 +5°C° 1.1 mm 3 mps 749 mmHg 91%
08:00 +4°C° 1.1 mm 4 mps 749 mmHg 92%
09:00 +4°C° 0.9 mm 4 mps 749 mmHg 92%
10:00 +4°C° 0.9 mm 4 mps 750 mmHg 93%
11:00 +3°C° 0.9 mm 4 mps 750 mmHg 93%
12:00 +4°C° 0.1 mm 4 mps 750 mmHg 92%
13:00 +4°C° 0.1 mm 4 mps 751 mmHg 91%
14:00 +4°C° 0.1 mm 4 mps 751 mmHg 90%
15:00 +5°C° 0.1 mm 3 mps 751 mmHg 85%
16:00 +5°C° 0.1 mm 3 mps 752 mmHg 81%
17:00 +7°C° 0.1 mm 3 mps 752 mmHg 77%
18:00 +5°C° 0 mm 3 mps 752 mmHg 80%
19:00 +4°C° 0 mm 3 mps 753 mmHg 82%
20:00 +5°C° 0 mm 2 mps 753 mmHg 85%
21:00 +3°C° 0 mm 3 mps 753 mmHg 87%
22:00 +2°C° 0 mm 3 mps 754 mmHg 88%
23:00 +2°C° 0 mm 3 mps 754 mmHg 90%
Show more